GFSMA_850_dewp_000.txt.gz
Dewpoint
4 4 4 3 3 1 -1 -1 -2 -2 -2 -2 -1 -1 -0 3 3 3 3 2 3 1 -1 -1 1 0 -0 -2 -2 -4 -4 -5 -6 -8 -8 -4 2 4 6 7 8 8 9
5 5 5 5 3 2 1 -1 -2 -2 -1 -1 -1 0 2 2 1 1 -0 -1 -0 0 0 -1 -2 -1 -1 -1 -0 1 -2 -2 -3 -6 -8 -9 -7 -1 4 5 7 8 9
5 6 6 5 3 0 -1 -2 -3 -2 -2 -2 -2 -2 -2 -2 -2 -2 -3 -3 -3 -3 -1 1 2 -1 -3 -0 -1 -0 0 -1 -2 -3 -7 -10 -9 -9 -6 2 6 7 8
5 5 5 4 -1 -1 -3 -5 -3 -3 -3 -3 -3 -3 -4 -4 -5 -8 -10 -11 -11 -9 -4 -2 -1 0 2 1 0 -0 -1 -1 2 -2 -3 -6 -8 -8 -8 -7 -0 5 6
1 -1 -2 -2 -2 -5 -5 -3 -3 -3 -3 -4 -4 -5 -5 -6 -9 -9 -9 -12 -10 -5 -4 -1 -2 -1 -2 -1 2 1 1 0 -0 3 0 -3 -3 -7 -7 -7 -8 -0 6
-2 -1 -3 -5 -5 -5 -5 -3 -3 -3 -4 -6 -6 -7 -7 -8 -9 -9 -10 -9 -4 -2 -1 -0 1 1 1 2 2 3 3 2 0 0 5 4 -0 -3 -7 -7 -8 -8 -2
-4 -5 -4 -4 -3 -3 -2 -3 -5 -7 -9 -11 -12 -10 -9 -8 -8 -12 -7 -4 -6 -7 -7 -4 -3 -2 -1 -0 1 2 3 3 2 1 2 5 4 1 -3 -6 -6 -7 -7
-3 -4 -4 -3 -2 -5 -7 -8 -9 -11 -13 -16 -14 -15 -9 -11 -8 -8 -10 -10 -5 -6 -5 -6 -8 -6 -6 -6 -5 -4 -2 -0 2 2 0 0 4 4 2 -3 -5 -6 -8
-4 -3 -2 -4 -4 -3 -3 -5 -10 -12 -12 -12 -13 -6 -4 -3 -5 -7 -10 -12 -7 -5 -8 -9 -9 -10 -11 -11 -10 -11 -11 -7 -4 -1 1 -0 2 4 4 1 -2 -5 -8
-2 -3 -3 -3 -4 -3 -6 -9 -9 -11 -9 -12 -9 -5 -3 -3 -3 -4 -4 -6 -9 -9 -9 -8 -9 -10 -10 -8 -9 -10 -11 -13 -13 -7 -3 -0 0 3 3 2 -1 -4 -6
-3 -6 -9 -5 -6 -5 -7 -7 -7 -7 -11 -10 -9 -9 -11 -11 -9 -4 -6 -6 -6 -8 -9 -11 -9 -8 -7 -7 -10 -10 -11 -12 -13 -12 -9 -3 1 1 4 3 1 -4 -6
-5 -6 -6 -5 -5 -4 -5 -9 -11 -12 -12 -12 -13 -14 -16 -16 -15 -10 -8 -8 -8 -11 -9 -9 -9 -9 -6 -6 -10 -10 -10 -10 -11 -9 -3 -2 -1 2 3 3 1 -3 -6
-3 -4 -4 -2 -2 -6 -7 -7 -8 -13 -14 -15 -16 -15 -14 -15 -15 -14 -12 -13 -13 -14 -13 -14 -14 -10 -9 -6 -7 -10 -9 -5 -5 -3 0 -0 1 2 3 2 0 -3 -6
-5 -4 -4 -2 -4 -5 -2 -8 -9 -14 -13 -14 -14 -14 -15 -15 -14 -13 -12 -12 -12 -12 -13 -14 -18 -18 -9 -7 -8 -9 -7 -7 -5 -2 -0 -1 -0 1 1 -0 -3 -5 -6
-17 -4 -1 -2 -2 -3 -6 -5 -10 -13 -12 -13 -12 -12 -12 -12 -11 -11 -11 -11 -12 -11 -12 -12 -15 -18 -14 -7 -7 -11 -9 -9 -8 -4 -3 -2 -0 0 1 1 -1 -3 -6
-6 -2 -3 -2 -3 -4 -6 -11 -12 -14 -13 -12 -12 -12 -11 -11 -10 -11 -11 -11 -11 -11 -12 -12 -13 -15 -16 -10 -7 -9 -9 -6 -6 -9 -8 -6 -1 -2 -1 -0 -0 -0 -1
-4 -4 -5 -3 -5 -7 -12 -13 -15 -13 -12 -12 -11 -11 -11 -11 -11 -11 -14 -14 -14 -15 -15 -15 -15 -15 -14 -9 -6 -6 -10 -8 -6 -9 -10 -10 -7 -3 -1 -1 -1 -1 -1
-5 -5 -5 -4 -5 -13 -14 -14 -14 -12 -13 -12 -11 -11 -11 -11 -14 -15 -13 -12 -13 -15 -13 -10 -13 -16 -15 -9 -8 -8 -7 -8 -10 -8 -8 -10 -12 -10 -2 -2 -2 -3 -5
-5 -4 -3 -8 -14 -14 -14 -14 -14 -13 -11 -11 -11 -11 -12 -13 -12 -11 -11 -12 -13 -14 -12 -10 -10 -10 -13 -9 -8 -9 -8 -8 -7 -10 -8 -7 -9 -11 -10 -2 -3 -3 -5
-4 -4 -9 -14 -14 -12 -14 -13 -13 -12 -11 -11 -11 -13 -12 -10 -10 -10 -11 -11 -12 -13 -13 -12 -11 -10 -9 -12 -8 -10 -10 -12 -12 -10 -11 -8 -8 -9 -6 -3 -4 -4 -6
-6 -5 -11 -14 -11 -10 -13 -12 -12 -11 -11 -12 -13 -13 -11 -10 -11 -11 -11 -12 -12 -12 -12 -12 -11 -11 -10 -9 -9 -10 -10 -12 -14 -16 -14 -13 -8 -7 -8 -5 -3 -4 -6
-6 -7 -12 -10 -8 -12 -12 -11 -12 -12 -13 -15 -17 -14 -14 -13 -13 -12 -14 -12 -12 -13 -13 -12 -12 -12 -12 -10 -9 -9 -10 -12 -13 -15 -16 -16 -15 -9 -7 -6 -5 -4 -8
-6 -7 -8 -7 -8 -12 -11 -11 -12 -13 -17 -19 -17 -15 -15 -15 -14 -14 -14 -14 -13 -12 -12 -11 -11 -12 -11 -10 -11 -10 -10 -11 -13 -14 -15 -17 -17 -15 -8 -11 -9 -8 -7
-7 -7 -7 -12 -11 -9 -10 -12 -13 -17 -20 -17 -16 -15 -15 -15 -15 -13 -13 -12 -13 -13 -13 -12 -12 -12 -11 -11 -12 -12 -12 -12 -13 -15 -15 -14 -17 -17 -15 -10 -9 -10 -11
-7 -8 -11 -9 -8 -11 -11 -13 -16 -20 -18 -17 -16 -15 -15 -15 -14 -13 -13 -13 -13 -13 -13 -12 -12 -13 -15 -13 -11 -11 -12 -13 -13 -14 -14 -13 -16 -16 -16 -16 -16 -14 -8
-10 -10 -9 -10 -11 -11 -13 -15 -20 -18 -17 -17 -16 -15 -15 -15 -14 -13 -13 -13 -13 -13 -13 -12 -12 -13 -13 -14 -14 -12 -12 -10 -10 -10 -11 -11 -12 -12 -13 -15 -16 -17 -17

GFSMA_850_dewp_006.txt.gz
Dewpoint
7 8 7 5 4 4 3 3 3 1 -0 -0 -2 -5 -3 -3 -3 -1 -0 0 -2 -4 -4 -3 -3 -3 -3 -2 -2 -0 -0 -1 -2 -1 -2 -4 -6 -8 -6 -0 4 8 8
5 5 6 5 4 4 4 2 -2 -3 -2 -3 -2 -2 -2 -2 -2 -2 -2 -1 -5 -10 -10 -10 -9 -10 -10 -5 -1 -1 -2 -1 -0 -2 -0 -1 -3 -5 -9 -8 -2 4 7
6 7 3 4 3 1 -2 -3 -3 -1 -1 -2 -2 -2 -2 -2 -2 1 -0 -2 -2 -2 -5 -6 -6 -6 -6 -9 -8 -2 0 1 1 1 -1 -0 -1 -1 -7 -10 -9 -5 4
5 3 0 -2 -3 -4 -5 -2 -1 -1 -2 -1 -2 -3 -3 -3 -3 1 0 -0 -1 -2 -1 -1 -4 -5 -5 -5 -5 -5 -3 -1 1 2 1 1 2 -0 -1 -5 -8 -8 -7
-2 -2 -3 -3 -4 -4 -3 -2 -1 -2 -2 -2 -3 -4 -4 -3 -3 -3 -1 1 1 1 -0 -1 -5 -6 -5 -6 -4 -1 -1 -2 -1 1 2 2 2 5 2 -1 -4 -7 -7
-2 -3 -2 -2 -3 -1 -1 -1 -1 -1 -1 -1 -1 -3 -3 -4 -5 -3 -1 -1 -2 -1 -1 -0 -1 -3 -3 -6 -7 -7 -7 -5 -4 -2 -0 1 3 5 6 3 -1 -3 -7
-3 -2 -1 -1 -0 0 1 0 -1 -2 -2 -1 -3 -7 -8 -9 -6 -3 -2 -4 -4 -2 -3 -3 -3 -4 -5 -5 -7 -4 -14 -14 -15 -13 -9 -4 -1 3 6 6 4 -0 -4
-2 -2 -1 -0 0 -0 -0 1 -1 -3 -5 -3 -2 -5 -9 -10 -11 -6 -5 -6 -5 -4 -5 -6 -5 -5 -5 -6 -5 -9 -7 -10 -20 -19 -17 -17 -11 -5 1 6 5 2 0
-2 -2 -1 -1 -0 -1 -1 -1 -2 -2 -4 -5 -4 -4 -6 -9 -9 -9 -9 -9 -7 -8 -7 -9 -7 -7 -8 -7 -7 -5 -4 -8 -17 -17 -17 -17 -16 -16 -8 0 5 5 2
-3 -3 -1 -3 -3 -3 -3 -2 -3 -3 -4 -7 -7 -7 -7 -7 -7 -9 -10 -9 -11 -11 -11 -10 -7 -9 -10 -11 -10 -7 -5 -10 -14 -12 -12 -12 -13 -6 -14 -10 -0 3 4
-2 -3 -3 -2 -3 -4 -2 -1 -1 -4 -5 -5 -7 -7 -8 -9 -10 -11 -11 -11 -11 -13 -13 -12 -11 -9 -10 -10 -13 -12 -7 -10 -11 -11 -10 -11 -10 -1 -1 -7 -8 0 3
-13 -12 -10 -4 -2 -2 -0 -1 -3 -3 -4 -6 -8 -9 -10 -10 -11 -11 -12 -12 -13 -13 -13 -12 -11 -11 -10 -11 -11 -12 -8 -11 -8 -8 -8 -11 -11 -4 -2 -4 -8 -5 1
-13 -12 -13 -6 -2 -1 -1 -2 -3 -4 -5 -7 -8 -9 -10 -10 -10 -10 -11 -12 -12 -13 -12 -13 -13 -12 -12 -11 -10 -10 -9 -11 -6 -7 -9 -9 -9 -7 -4 -1 -0 1 -0
-9 -7 -6 -3 -1 -1 -2 -2 -2 -4 -6 -8 -8 -9 -9 -10 -11 -10 -10 -11 -11 -11 -12 -12 -13 -13 -13 -12 -11 -11 -10 -9 -5 -7 -9 -7 -8 -6 -5 -4 1 3 4
-8 -5 -3 -1 -1 -2 -2 -2 -5 -6 -7 -8 -9 -9 -10 -11 -11 -11 -12 -11 -11 -10 -11 -13 -13 -13 -12 -12 -11 -11 -10 -9 -6 -6 -7 -6 -7 -6 -4 -3 -1 0 0
-8 -5 -3 -1 -2 -2 -3 -5 -7 -8 -9 -10 -10 -10 -11 -12 -11 -11 -12 -12 -12 -12 -12 -13 -14 -13 -12 -11 -10 -10 -10 -10 -7 -5 -6 -5 -6 -7 -7 -5 -1 -1 -1
-7 -6 -4 -3 -3 -5 -6 -5 -8 -9 -10 -10 -10 -10 -10 -11 -11 -11 -12 -12 -12 -12 -13 -13 -12 -12 -11 -11 -9 -9 -9 -10 -8 -5 -7 -4 -5 -8 -12 -11 -6 -2 -0
-7 -5 -4 -4 -4 -5 -5 -8 -9 -9 -10 -10 -10 -10 -10 -11 -11 -11 -11 -11 -11 -12 -11 -11 -11 -11 -11 -11 -11 -10 -10 -11 -6 -5 -7 -11 -11 -8 -9 -12 -10 -2 -3
-5 -4 -4 -4 -5 -6 -8 -9 -9 -8 -9 -9 -9 -9 -10 -10 -10 -11 -11 -11 -10 -10 -9 -10 -11 -11 -11 -11 -10 -10 -10 -9 -7 -5 -9 -8 -8 -11 -10 -12 -12 -5 -2
-5 -4 -5 -4 -5 -7 -9 -8 -8 -8 -8 -8 -8 -9 -9 -10 -10 -10 -11 -11 -11 -10 -10 -11 -12 -12 -12 -12 -11 -10 -8 -8 -9 -7 -9 -10 -11 -10 -12 -11 -9 -3 -4
-4 -4 -5 -6 -7 -8 -8 -9 -8 -7 -8 -9 -10 -11 -12 -12 -15 -14 -11 -11 -11 -11 -11 -12 -12 -12 -11 -12 -12 -11 -9 -9 -7 -7 -10 -10 -8 -8 -8 -7 -6 -3 -3
-5 -5 -5 -5 -6 -7 -7 -8 -10 -9 -10 -11 -12 -13 -13 -13 -12 -13 -12 -12 -13 -12 -12 -11 -11 -11 -11 -10 -10 -9 -9 -10 -10 -7 -8 -11 -9 -11 -9 -9 -10 -6 -3
-6 -6 -6 -5 -5 -5 -10 -10 -10 -11 -10 -12 -13 -13 -13 -13 -12 -12 -12 -12 -11 -11 -12 -11 -11 -12 -11 -11 -11 -11 -10 -9 -10 -9 -9 -11 -11 -11 -11 -11 -10 -9 -4
-7 -7 -8 -6 -6 -8 -10 -10 -11 -10 -12 -13 -13 -12 -12 -12 -12 -12 -12 -12 -13 -13 -13 -12 -12 -11 -11 -10 -10 -10 -10 -10 -10 -11 -10 -11 -12 -10 -9 -9 -10 -12 -7
-7 -8 -7 -7 -7 -9 -10 -11 -10 -11 -14 -16 -12 -12 -15 -12 -12 -17 -12 -12 -13 -14 -12 -12 -12 -13 -13 -13 -13 -11 -11 -12 -10 -12 -12 -11 -13 -10 -10 -9 -8 -10 -11
-7 -9 -10 -12 -11 -10 -11 -9 -10 -14 -15 -14 -11 -14 -14 -17 -23 -19 -13 -13 -12 -12 -12 -12 -12 -12 -11 -11 -12 -11 -12 -11 -11 -9 -12 -12 -12 -12 -10 -11 -8 -9 -12

GFSMA_850_dewp_009.txt.gz
Dewpoint
4 5 4 2 4 6 5 5 4 2 0 -0 -0 -1 -0 -1 -1 -1 -1 -1 -1 -2 -5 -9 -9 -8 -8 -8 -8 -5 -0 -0 -1 0 -1 -2 -1 -3 -5 -8 -2 5 7
6 5 4 6 6 6 5 3 2 1 -0 -1 -1 -2 -1 -1 -1 -1 -1 -0 -1 -1 -2 -3 -4 -4 -5 -5 -6 -7 -9 -2 1 -1 2 1 -1 -1 -1 -4 -8 -5 4
7 6 6 5 5 4 0 0 1 -0 -1 -1 -1 -1 -2 -3 -2 -2 -0 1 -1 -0 -0 -1 -1 -2 -3 -3 -3 -4 -6 -7 -5 1 1 2 2 1 -0 -1 -3 -9 -7
3 4 5 4 0 -3 -3 -1 -0 0 -0 -1 -1 -2 -3 -4 -3 -2 -3 -2 -0 -0 -0 -0 -0 -1 -3 -5 -4 -3 -1 -1 -3 -4 -1 2 3 3 2 0 -0 -1 -8
-2 -1 2 2 -1 1 1 1 0 1 0 -0 -1 -2 -2 -4 -3 -4 -5 -3 -0 -0 0 -1 -1 -2 -2 -3 -3 -4 -2 -2 -3 -2 -3 -2 0 3 4 4 2 2 0
-2 1 2 2 1 1 1 2 2 1 1 -1 -2 -1 -4 -6 -7 -7 -4 -2 -2 -3 -2 -2 -3 -3 -4 -4 -4 -5 -2 -0 0 0 -5 -6 -3 -1 2 6 6 4 2
1 1 1 2 2 1 1 1 1 1 -0 -4 -5 -3 -4 -6 -8 -9 -7 -4 -3 -5 -4 -4 -4 -5 -4 -5 -6 -4 -4 -2 -0 -1 -13 -19 -18 -10 -5 -1 6 6 6
1 1 2 2 1 1 0 0 0 -0 -3 -5 -5 -4 -6 -8 -10 -8 -9 -8 -9 -6 -6 -7 -6 -7 -6 -7 -7 -7 -5 -3 -4 -4 -15 -20 -24 -27 -21 -13 -4 5 6
2 1 0 0 0 -0 -2 -3 -3 -1 -3 -4 -6 -6 -7 -8 -8 -8 -9 -9 -9 -8 -8 -9 -9 -9 -7 -8 -8 -9 -10 -9 -9 -9 -10 -8 -10 -20 -27 -27 -19 -8 3
-1 -3 -4 -4 -3 -2 -3 -3 -3 -1 -3 -5 -5 -6 -6 -6 -7 -8 -11 -11 -10 -10 -10 -10 -11 -10 -10 -8 -9 -9 -11 -12 -12 -10 -19 -17 -10 -4 -14 -24 -25 -19 -9
-11 -12 -11 -10 -7 -4 -2 -2 -1 -2 -3 -4 -4 -5 -6 -8 -10 -10 -10 -11 -12 -12 -12 -12 -11 -11 -11 -11 -10 -10 -10 -11 -9 -9 -13 -15 -14 -7 -2 -3 -9 -12 -9
-11 -10 -8 -7 -6 -5 -2 -2 -1 -2 -1 -2 -5 -7 -8 -10 -11 -10 -10 -10 -11 -12 -12 -12 -12 -12 -12 -12 -12 -12 -10 -9 -9 -11 -7 -8 -9 -8 -2 -2 -1 0 1
-10 -9 -6 -4 -4 -3 -2 -2 -2 -2 -2 -3 -5 -8 -9 -9 -9 -9 -10 -11 -11 -12 -12 -12 -11 -11 -12 -13 -12 -12 -11 -12 -11 -9 -8 -8 -8 -7 -9 -9 -8 -0 1
-9 -7 -5 -3 -3 -2 -2 -2 -2 -2 -2 -4 -6 -6 -7 -8 -9 -9 -10 -11 -11 -12 -12 -11 -12 -12 -13 -13 -12 -12 -11 -10 -10 -9 -9 -9 -7 -6 -8 -8 -8 -7 -1
-9 -8 -5 -3 -2 -2 -2 -2 -3 -4 -6 -6 -7 -7 -8 -9 -10 -11 -11 -11 -11 -10 -11 -13 -13 -13 -13 -13 -12 -11 -10 -9 -8 -10 -10 -10 -9 -6 -7 -6 -5 -6 -4
-7 -7 -6 -5 -4 -3 -2 -4 -5 -5 -5 -7 -9 -8 -8 -8 -9 -11 -11 -10 -11 -12 -11 -13 -13 -13 -12 -11 -11 -10 -10 -8 -10 -8 -11 -9 -8 -6 -7 -9 -9 -7 -3
-7 -7 -7 -5 -6 -6 -5 -5 -5 -5 -7 -8 -7 -6 -8 -8 -9 -9 -10 -11 -12 -12 -12 -11 -13 -13 -11 -10 -10 -10 -10 -10 -10 -9 -8 -6 -7 -8 -6 -9 -13 -13 -6
-7 -6 -5 -5 -6 -6 -7 -7 -7 -8 -8 -7 -7 -8 -8 -9 -9 -11 -12 -11 -11 -11 -11 -11 -11 -9 -9 -10 -11 -10 -10 -10 -10 -10 -6 -7 -8 -9 -7 -9 -12 -14 -13
-7 -5 -6 -6 -6 -5 -5 -6 -8 -7 -6 -6 -7 -7 -7 -8 -11 -11 -11 -11 -11 -12 -11 -9 -9 -10 -11 -11 -11 -11 -11 -9 -10 -9 -7 -7 -9 -10 -11 -11 -11 -14 -13
-6 -5 -6 -6 -6 -6 -9 -9 -8 -8 -7 -7 -6 -8 -10 -11 -11 -10 -11 -11 -11 -11 -11 -11 -11 -12 -11 -11 -11 -10 -10 -9 -9 -8 -7 -6 -8 -11 -10 -10 -10 -12 -12
-6 -6 -6 -5 -4 -5 -7 -9 -7 -6 -8 -8 -9 -11 -12 -12 -13 -13 -12 -11 -11 -11 -12 -12 -11 -11 -11 -10 -11 -11 -10 -10 -10 -9 -8 -6 -7 -8 -6 -7 -5 -8 -8
-7 -7 -7 -7 -4 -5 -6 -8 -10 -10 -10 -10 -11 -11 -12 -12 -12 -12 -11 -11 -12 -11 -11 -11 -12 -11 -12 -12 -11 -10 -10 -10 -10 -8 -9 -7 -6 -8 -9 -6 -7 -11 -10
-7 -7 -8 -8 -5 -5 -6 -10 -10 -10 -9 -9 -11 -12 -12 -13 -12 -11 -11 -13 -12 -13 -12 -11 -11 -11 -10 -10 -10 -10 -10 -9 -9 -9 -8 -9 -7 -8 -9 -8 -11 -11 -10
-8 -8 -8 -8 -7 -6 -7 -9 -10 -11 -8 -9 -11 -11 -12 -12 -12 -12 -22 -12 -12 -13 -13 -13 -11 -11 -11 -12 -12 -11 -11 -11 -12 -12 -11 -9 -11 -11 -8 -8 -8 -10 -10
-8 -8 -8 -8 -9 -8 -8 -10 -10 -10 -8 -9 -10 -11 -12 -13 -12 -18 -18 -12 -12 -13 -14 -14 -13 -12 -13 -14 -13 -11 -12 -12 -11 -12 -11 -10 -11 -11 -9 -11 -9 -9 -9
-8 -8 -8 -8 -8 -9 -9 -10 -10 -9 -10 -9 -10 -11 -12 -13 -18 -28 -27 -23 -12 -12 -14 -14 -12 -12 -11 -11 -11 -11 -11 -10 -11 -11 -10 -9 -9 -11 -12 -12 -10 -10 -9

GFSMA_850_dewp_012.txt.gz
Dewpoint
5 5 5 5 5 6 6 5 4 3 2 -1 -2 -2 -2 -2 -2 -1 -1 -1 1 0 -1 -1 -1 -1 -2 -2 -4 -6 -7 -8 -7 2 4 5 1 -2 -1 -1 -4 -7 -1
8 7 5 5 3 0 3 4 3 -1 -1 -1 -1 -1 -1 -2 -3 -2 -2 -2 0 0 -0 -0 -1 -1 -1 -1 -1 -3 -3 -6 -8 -7 -1 3 5 3 1 1 0 -2 -7
7 7 6 4 2 0 4 -2 -3 -2 0 -0 -1 -1 -1 -2 -3 -4 -3 -2 -2 -1 0 0 -0 -0 -1 -2 -2 -3 -3 -2 -3 -6 -6 -3 2 5 4 4 4 1 -2
3 3 0 -2 -2 -1 -0 1 1 0 0 1 0 -1 -1 -2 -2 -5 -3 -3 -4 -2 1 1 0 -2 -2 -3 -3 -2 -0 0 0 -4 -3 -3 -4 -1 4 4 5 5 3
-3 -2 2 1 -0 -0 1 1 2 1 1 1 0 -1 -3 -2 -4 -6 -6 -7 -5 -1 -2 -2 -1 -2 -3 -3 -2 -2 -2 -1 1 1 0 -6 -5 -4 -3 1 4 6 7
-1 -1 2 2 2 2 2 2 1 1 1 1 -0 -4 -4 -3 -6 -7 -5 -6 -3 -3 -2 -4 -4 -4 -4 -5 -4 -4 -2 -3 -2 0 1 -0 -12 -11 -10 -8 -3 4 7
1 1 1 1 1 1 1 0 -1 -0 0 -0 -3 -5 -6 -5 -6 -8 -8 -8 -9 -9 -7 -7 -6 -6 -7 -7 -6 -5 -5 -5 -1 -1 -1 -2 -3 -20 -24 -23 -20 -7 1
-1 0 -0 -0 0 0 -1 -1 -2 -3 -2 -1 -4 -5 -5 -6 -6 -7 -8 -8 -9 -9 -9 -8 -8 -9 -9 -9 -8 -7 -6 -6 -7 -5 -4 -3 -3 -3 -22 -26 -21 -23 -13
1 -0 -2 -3 -3 -5 -2 -2 -3 -3 -1 -1 -4 -5 -5 -5 -5 -6 -7 -9 -11 -11 -11 -10 -10 -10 -11 -10 -11 -8 -9 -9 -10 -10 -6 -5 -4 -3 -3 -11 -20 -6 -20
-5 -8 -12 -12 -11 -10 -6 -3 -2 -2 -2 -2 -3 -4 -4 -5 -6 -7 -9 -10 -11 -11 -11 -11 -12 -12 -11 -11 -11 -11 -10 -10 -10 -11 -8 -7 -5 -3 -3 -2 -3 -7 -1
-13 -12 -12 -14 -20 -17 -13 -5 -2 -1 -1 -2 -2 -3 -5 -7 -9 -10 -9 -10 -10 -11 -11 -11 -11 -12 -12 -11 -11 -11 -12 -12 -12 -11 -9 -7 -6 -4 -4 -3 -2 -1 -1
-12 -11 -12 -17 -12 -7 -4 -3 -1 -1 -1 -3 -3 -3 -6 -8 -8 -8 -8 -8 -9 -9 -10 -11 -12 -12 -11 -11 -12 -12 -13 -12 -12 -12 -12 -8 -6 -5 -5 -3 -2 -2 -1
-11 -10 -15 -13 -13 -3 -2 -2 -1 -3 -6 -5 -4 -4 -7 -8 -8 -8 -8 -8 -8 -10 -11 -12 -11 -11 -12 -13 -13 -12 -12 -12 -11 -11 -10 -7 -6 -6 -6 -6 -3 -2 -2
-14 -12 -11 -14 -4 -2 -2 -4 -4 -4 -4 -3 -4 -5 -6 -8 -7 -9 -10 -10 -10 -10 -9 -9 -11 -12 -12 -12 -12 -12 -11 -11 -11 -10 -11 -10 -7 -10 -11 -8 -6 -8 -8
-13 -11 -15 -10 -4 -3 -5 -4 -6 -4 -4 -5 -4 -6 -7 -8 -8 -8 -9 -10 -10 -9 -8 -10 -11 -11 -11 -12 -12 -12 -11 -11 -11 -11 -13 -10 -8 -9 -11 -8 -6 -6 -7
-15 -12 -9 -7 -6 -5 -3 -4 -4 -4 -4 -5 -5 -6 -8 -7 -7 -8 -9 -9 -10 -10 -10 -11 -10 -10 -10 -11 -12 -12 -12 -13 -13 -12 -12 -10 -8 -7 -7 -7 -8 -6 -10
-11 -8 -7 -6 -6 -6 -6 -6 -5 -7 -6 -6 -5 -6 -6 -7 -8 -9 -9 -10 -11 -11 -10 -10 -11 -11 -10 -12 -13 -12 -12 -13 -12 -10 -9 -9 -7 -7 -6 -7 -6 -6 -12
-7 -7 -6 -5 -6 -6 -6 -6 -6 -7 -7 -7 -7 -5 -6 -7 -7 -8 -10 -11 -10 -10 -11 -11 -11 -11 -11 -13 -11 -11 -12 -11 -11 -11 -11 -9 -8 -8 -7 -9 -10 -8 -9
-7 -7 -6 -5 -6 -6 -6 -6 -7 -8 -7 -6 -6 -6 -7 -8 -10 -11 -11 -11 -12 -13 -12 -11 -11 -11 -11 -11 -12 -12 -11 -11 -10 -10 -9 -7 -8 -6 -8 -9 -9 -10 -11
-6 -6 -5 -6 -5 -6 -6 -8 -8 -8 -7 -6 -7 -8 -9 -11 -11 -12 -12 -14 -14 -12 -12 -12 -12 -12 -12 -14 -12 -12 -12 -13 -13 -12 -12 -11 -9 -7 -9 -10 -8 -9 -10
-6 -6 -7 -7 -6 -6 -4 -6 -7 -9 -11 -9 -10 -10 -10 -11 -12 -12 -13 -12 -11 -12 -13 -13 -12 -13 -12 -12 -13 -11 -10 -10 -12 -11 -10 -9 -9 -7 -9 -8 -6 -7 -9
-7 -7 -7 -7 -7 -6 -5 -6 -6 -11 -13 -12 -9 -10 -10 -12 -13 -13 -11 -11 -11 -12 -13 -12 -12 -11 -12 -11 -10 -10 -11 -11 -11 -11 -10 -12 -10 -7 -6 -6 -6 -8 -10
-8 -7 -7 -7 -8 -7 -7 -6 -7 -12 -10 -10 -9 -10 -11 -11 -12 -11 -12 -14 -18 -14 -12 -13 -12 -10 -10 -11 -12 -12 -14 -13 -13 -13 -12 -13 -13 -9 -8 -7 -7 -8 -9
-9 -8 -7 -8 -8 -7 -6 -6 -7 -9 -10 -10 -9 -10 -10 -11 -11 -14 -16 -24 -25 -18 -13 -13 -12 -13 -13 -14 -14 -14 -13 -13 -14 -15 -15 -14 -11 -11 -13 -10 -9 -9 -10
-9 -8 -8 -8 -8 -8 -8 -8 -9 -9 -11 -9 -10 -11 -10 -11 -13 -14 -19 -26 -25 -23 -14 -15 -20 -18 -14 -13 -12 -10 -12 -12 -12 -14 -15 -12 -10 -12 -12 -11 -12 -15 -16
-8 -8 -7 -7 -7 -8 -9 -10 -9 -10 -10 -10 -12 -12 -10 -10 -11 -13 -20 -22 -20 -18 -19 -18 -14 -13 -13 -12 -11 -10 -10 -10 -10 -11 -14 -11 -11 -8 -10 -11 -11 -10 -10

GFSMA_850_dewp_015.txt.gz
Dewpoint
6 4 5 5 4 5 4 4 5 5 2 -3 -3 -2 -1 -1 -2 -3 -2 -2 -2 -2 -1 0 0 -0 -1 -1 -1 -2 -3 -5 -5 -5 -5 -2 3 4 5 3 2 0 -1
7 7 7 5 4 1 -0 2 2 -2 -3 -2 -1 -2 -1 -1 -1 -3 -4 -3 -2 -2 -1 1 0 0 -0 -1 -1 -1 -2 -3 -6 -6 -2 -2 -2 1 4 5 4 2 2
8 7 6 4 -1 -3 -1 -2 -2 -2 -2 -2 -1 -0 -1 -1 -2 -2 -3 -4 -7 -6 -5 1 1 0 0 -1 -0 -2 -2 -1 -0 -2 -4 -0 0 -2 -2 4 5 4 2
4 1 -2 -4 -3 -2 -2 -1 0 1 1 0 -2 -1 -1 -3 -3 -2 -5 -6 -6 -2 -1 -0 -0 -1 -2 -2 -1 -1 -2 0 -0 1 1 1 1 1 -1 -4 0 4 5
-4 -4 -2 0 0 0 1 1 1 1 -1 0 1 0 -2 -4 -4 -7 -6 -5 -4 -4 -6 -4 -4 -5 -4 -3 -4 -3 -1 -2 -5 -1 0 0 1 -1 -5 -7 -7 -4 1
-1 -1 -0 -0 -0 1 1 1 1 -3 -2 -0 0 -1 -5 -5 -6 -7 -7 -7 -7 -8 -8 -7 -7 -7 -6 -5 -6 -6 -4 -5 -4 -3 -3 -1 -1 -1 -3 -5 -7 -14 -11
-1 -1 -1 -0 -2 -4 -3 -2 -4 -2 -3 -4 -4 -2 -3 -6 -6 -6 -7 -7 -8 -9 -10 -10 -10 -10 -9 -9 -9 -9 -9 -6 -4 -4 -4 -4 -3 -3 -2 -2 -1 -2 -13
-1 -2 -3 -5 -5 -6 -8 -8 -5 -4 -6 -3 -1 -2 -4 -5 -6 -6 -6 -7 -10 -10 -10 -11 -11 -10 -10 -11 -11 -11 -10 -8 -9 -8 -6 -5 -5 -4 -4 -2 -2 -1 -1
-1 -3 -6 -10 -13 -12 -11 -10 -6 -4 -2 -2 -2 -3 -4 -5 -5 -6 -8 -9 -10 -10 -11 -11 -11 -11 -11 -12 -12 -11 -10 -10 -10 -9 -8 -7 -6 -6 -5 -3 -3 -2 -1
-7 -13 -21 -25 -24 -25 -25 -20 -12 -6 -2 -2 -1 -2 -3 -4 -7 -8 -9 -9 -9 -10 -12 -13 -10 -11 -11 -11 -10 -11 -11 -11 -11 -12 -8 -8 -8 -7 -6 -4 -3 -3 -1
-14 -20 -25 -25 -26 -27 -18 -9 -4 -2 -1 -1 -2 -3 -3 -4 -6 -8 -8 -8 -9 -9 -10 -9 -10 -11 -12 -11 -11 -12 -12 -12 -12 -12 -10 -8 -8 -8 -6 -5 -4 -3 -2
-14 -23 -25 -26 -27 -17 -7 -3 -2 -1 -1 -2 -5 -6 -4 -6 -7 -8 -8 -9 -9 -11 -11 -11 -10 -11 -11 -12 -13 -13 -13 -12 -12 -12 -12 -9 -8 -8 -7 -6 -5 -4 -3
-22 -27 -26 -27 -24 -11 -3 -3 -4 -6 -5 -5 -7 -6 -4 -6 -8 -7 -9 -9 -10 -11 -11 -11 -11 -11 -10 -12 -13 -11 -11 -12 -13 -12 -12 -11 -8 -8 -8 -7 -6 -5 -3
-24 -25 -26 -27 -14 -5 -3 -2 -5 -6 -6 -4 -4 -5 -6 -6 -8 -7 -8 -8 -9 -9 -10 -10 -10 -11 -11 -10 -10 -11 -11 -12 -12 -12 -13 -13 -11 -9 -8 -6 -6 -5 -4
-22 -20 -22 -22 -15 -6 -4 -3 -3 -5 -4 -4 -4 -4 -5 -6 -7 -7 -7 -8 -9 -9 -10 -10 -10 -10 -10 -10 -10 -10 -11 -11 -13 -14 -14 -15 -12 -8 -7 -7 -6 -7 -9
-18 -20 -22 -12 -10 -12 -7 -6 -5 -5 -5 -7 -4 -4 -4 -5 -5 -6 -8 -8 -9 -10 -9 -10 -10 -10 -11 -11 -12 -12 -13 -15 -14 -15 -13 -11 -11 -9 -9 -8 -7 -8 -8
-14 -16 -12 -9 -9 -7 -6 -6 -6 -6 -7 -7 -7 -6 -6 -5 -6 -7 -7 -9 -10 -10 -10 -10 -11 -11 -12 -13 -13 -13 -14 -13 -13 -13 -12 -12 -11 -10 -9 -9 -8 -7 -8
-10 -11 -10 -10 -8 -5 -5 -6 -7 -7 -6 -7 -7 -7 -7 -7 -8 -8 -10 -11 -12 -12 -12 -15 -17 -16 -14 -13 -13 -13 -15 -14 -12 -11 -10 -10 -9 -10 -9 -7 -8 -7 -8
-8 -7 -10 -10 -6 -5 -5 -8 -7 -7 -8 -8 -7 -6 -6 -8 -9 -11 -11 -12 -12 -14 -15 -14 -16 -16 -15 -15 -15 -15 -15 -14 -14 -13 -14 -12 -11 -10 -11 -11 -8 -7 -8
-6 -6 -8 -8 -6 -6 -6 -6 -6 -7 -7 -9 -11 -8 -9 -10 -10 -10 -11 -13 -13 -15 -14 -15 -16 -14 -13 -14 -13 -11 -11 -12 -13 -14 -13 -10 -10 -11 -10 -9 -8 -8 -8
-5 -6 -7 -7 -7 -6 -6 -7 -6 -6 -6 -6 -17 -15 -12 -11 -11 -11 -13 -13 -13 -12 -15 -17 -14 -12 -12 -12 -11 -11 -11 -13 -16 -15 -15 -13 -13 -13 -10 -6 -8 -7 -7
-8 -7 -8 -7 -7 -7 -7 -8 -7 -6 -6 -12 -12 -11 -10 -12 -11 -12 -12 -12 -11 -13 -19 -13 -12 -12 -11 -11 -12 -12 -13 -14 -15 -16 -15 -16 -15 -16 -11 -7 -6 -7 -7
-8 -8 -8 -8 -7 -7 -8 -8 -7 -7 -7 -9 -10 -11 -11 -10 -11 -11 -12 -13 -19 -25 -26 -16 -12 -11 -12 -13 -13 -14 -14 -13 -13 -15 -13 -13 -16 -17 -12 -9 -8 -7 -8
-8 -9 -9 -8 -7 -7 -7 -7 -7 -8 -8 -8 -10 -11 -12 -12 -11 -11 -13 -15 -19 -22 -21 -17 -12 -14 -16 -15 -13 -12 -11 -12 -13 -14 -13 -11 -14 -14 -13 -11 -11 -9 -11
-10 -10 -9 -8 -7 -7 -7 -7 -7 -8 -9 -9 -11 -11 -13 -12 -10 -11 -12 -13 -19 -18 -16 -17 -16 -16 -14 -13 -12 -11 -11 -11 -10 -13 -13 -11 -13 -13 -12 -15 -14 -12 -11
-9 -8 -8 -8 -7 -7 -7 -7 -7 -9 -11 -11 -12 -12 -14 -14 -12 -11 -12 -17 -17 -15 -15 -15 -15 -17 -14 -13 -12 -12 -11 -11 -11 -11 -11 -10 -12 -11 -12 -9 -9 -9 -10

GFSMA_850_dewp_021.txt.gz
Dewpoint
7 7 8 8 7 6 5 4 2 2 1 -2 -2 -2 -2 -7 -6 -2 -1 -2 -3 -4 -3 0 1 4 3 1 0 0 0 -0 -1 -1 -2 -3 -4 -8 -12 -10 -7 -1 2
8 6 5 5 5 4 2 -1 -1 -2 -2 -1 -1 -1 -1 -4 -2 -2 -2 -2 -2 -4 -3 2 4 3 3 3 2 -0 -1 -1 -1 -0 -2 -3 -4 -5 -6 -9 -16 -14 -8
8 7 7 6 4 -1 -3 -3 -2 -2 -1 -1 0 -0 -4 -2 -3 -5 -5 -6 -7 -4 -1 2 0 2 1 1 -0 0 1 -1 -2 -1 -2 1 -2 -5 -7 -8 -10 -14 -17
7 6 5 3 -3 -2 -3 -3 -2 -1 0 0 -5 -2 -0 -1 -3 -4 -5 -6 -7 -3 1 0 0 -1 -3 -3 -4 -2 -2 -3 -1 -1 -0 -1 -3 -6 -8 -11 -13 -15 -19
3 -1 -3 -3 -3 -2 -2 -3 -3 -2 -4 -8 -6 -4 -4 -4 -5 -5 -6 -6 -7 -7 -8 -6 -4 -6 -9 -9 -5 -4 -4 -3 -3 -2 -1 -3 -7 -10 -11 -9 -4 -2 -3
-4 -4 -3 -3 -2 -4 -6 -10 -14 -14 -17 -14 -12 -10 -5 -3 -3 -3 -5 -7 -7 -7 -7 -8 -10 -11 -11 -11 -10 -7 -6 -5 -5 -3 -4 -5 -4 -4 -7 -3 -3 -3 -2
-3 -3 -3 -2 -4 -6 -10 -16 -20 -20 -19 -21 -19 -8 -4 -4 -4 -5 -6 -6 -8 -8 -9 -10 -11 -12 -11 -11 -11 -11 -7 -7 -6 -6 -6 -6 -5 -5 -5 -4 -4 -4 -3
-2 -2 -3 -3 -3 -4 -8 -19 -25 -26 -25 -17 -12 -6 -3 -5 -5 -5 -5 -6 -7 -9 -10 -9 -13 -13 -11 -11 -11 -11 -11 -9 -7 -7 -7 -6 -6 -6 -6 -5 -5 -5 -4
-1 -1 -3 -2 -3 -8 -19 -24 -27 -28 -22 -14 -7 -3 -2 -3 -4 -4 -5 -5 -8 -8 -11 -15 -17 -15 -11 -11 -11 -11 -11 -11 -11 -9 -8 -7 -7 -6 -6 -6 -6 -5 -5
1 -2 -3 -4 -7 -14 -24 -27 -27 -20 -12 -5 -2 -1 -1 -2 -3 -5 -6 -6 -7 -12 -12 -14 -14 -15 -17 -17 -14 -12 -12 -11 -12 -11 -8 -8 -7 -7 -7 -7 -6 -6 -5
1 -3 -5 -8 -15 -24 -26 -25 -16 -9 -4 -4 -5 -4 -4 -6 -6 -6 -7 -7 -8 -10 -10 -12 -13 -12 -13 -13 -15 -14 -11 -10 -11 -10 -10 -7 -6 -7 -7 -7 -7 -6 -6
-0 -5 -8 -16 -23 -22 -11 -21 -11 -7 -5 -4 -8 -8 -7 -5 -6 -5 -6 -6 -7 -8 -9 -9 -9 -12 -13 -13 -14 -12 -11 -11 -10 -10 -10 -10 -8 -7 -8 -8 -8 -8 -7
-4 -7 -13 -22 -6 1 -16 -13 -9 -5 -5 -6 -6 -7 -7 -6 -5 -5 -6 -7 -7 -7 -8 -8 -8 -10 -10 -11 -11 -11 -11 -11 -11 -11 -11 -10 -11 -13 -12 -9 -7 -7 -6
-6 -13 -21 -1 -3 -19 -17 -11 -8 -5 -4 -5 -6 -6 -6 -7 -6 -5 -5 -6 -7 -7 -7 -7 -8 -9 -10 -10 -11 -11 -12 -12 -14 -14 -16 -18 -15 -9 -8 -8 -7 -7 -7
-9 -15 -0 -0 -18 -18 -19 -15 -12 -6 -5 -6 -6 -6 -7 -6 -7 -5 -5 -6 -5 -5 -7 -8 -9 -12 -14 -16 -18 -19 -19 -19 -19 -17 -16 -11 -9 -9 -8 -8 -8 -7 -7
-11 -1 -7 -13 -11 -19 -18 -10 -11 -8 -8 -7 -8 -7 -7 -7 -6 -6 -6 -6 -6 -6 -9 -11 -12 -13 -16 -18 -19 -20 -19 -18 -17 -16 -16 -14 -10 -9 -9 -9 -8 -8 -8
-5 -6 -9 -10 -11 -11 -14 -16 -9 -7 -6 -6 -8 -8 -7 -7 -7 -7 -7 -7 -9 -10 -11 -12 -13 -15 -18 -19 -19 -18 -17 -16 -15 -15 -14 -11 -13 -14 -14 -12 -12 -13 -12
-6 -4 -10 -7 -11 -15 -14 -12 -10 -8 -7 -8 -9 -8 -8 -8 -8 -7 -9 -10 -11 -11 -11 -13 -14 -16 -19 -22 -20 -17 -16 -15 -15 -15 -15 -16 -17 -17 -14 -11 -11 -12 -12
-4 -7 -7 -9 -9 -6 -10 -10 -9 -7 -6 -7 -8 -7 -7 -8 -7 -15 -15 -12 -11 -13 -13 -12 -13 -17 -22 -23 -21 -17 -16 -16 -16 -18 -20 -17 -17 -18 -18 -14 -12 -13 -13
-3 -5 -6 -6 -4 -8 -8 -8 -7 -7 -6 -6 -7 -7 -7 -7 -12 -12 -12 -11 -13 -12 -12 -12 -15 -20 -22 -21 -19 -15 -17 -17 -20 -18 -16 -13 -13 -15 -16 -17 -14 -14 -15
-5 -6 -6 -1 -6 -8 -7 -7 -7 -7 -7 -6 -6 -6 -5 -8 -10 -10 -11 -12 -13 -12 -12 -13 -17 -20 -20 -19 -17 -17 -17 -16 -14 -15 -13 -13 -14 -15 -16 -16 -16 -16 -11
-5 -6 -2 -1 -8 -7 -7 -7 -7 -7 -6 -6 -6 -5 -6 -7 -8 -10 -11 -12 -13 -11 -12 -13 -17 -19 -17 -16 -16 -17 -15 -13 -12 -13 -12 -14 -15 -15 -15 -15 -17 -16 -11
-4 -2 -1 -5 -9 -8 -8 -9 -8 -7 -6 -7 -6 -5 -6 -7 -9 -11 -11 -13 -12 -11 -12 -14 -18 -16 -16 -14 -16 -15 -13 -11 -11 -13 -13 -14 -14 -12 -12 -14 -13 -14 -9
-1 -1 -1 -8 -8 -9 -9 -9 -9 -7 -7 -7 -6 -6 -7 -8 -11 -13 -13 -14 -13 -13 -13 -17 -16 -15 -14 -14 -16 -13 -12 -12 -13 -14 -13 -12 -13 -13 -12 -14 -9 -9 -9
-1 -2 -8 -8 -10 -12 -11 -10 -8 -7 -7 -7 -6 -6 -8 -11 -12 -15 -15 -14 -14 -15 -17 -16 -15 -14 -14 -14 -13 -14 -15 -13 -14 -15 -14 -11 -13 -12 -13 -14 -10 -9 -8
-2 -7 -9 -13 -15 -18 -16 -12 -7 -7 -7 -7 -6 -8 -9 -12 -12 -13 -15 -15 -16 -17 -17 -16 -15 -15 -14 -14 -14 -14 -14 -13 -12 -13 -13 -12 -13 -11 -10 -13 -11 -14 -11

GFSMA_850_dewp_024.txt.gz
Dewpoint
7 7 8 7 7 6 6 5 2 1 -1 -2 -1 -1 -2 -5 -9 -6 -3 -2 -2 -3 0 1 3 4 3 2 1 0 0 1 -1 -1 -2 -3 -3 -4 -6 -6 -7 -8 -13
8 8 8 7 5 5 3 0 -2 -3 -2 -1 -1 -1 -2 -8 -8 -9 -9 -10 -7 -6 -4 1 2 3 3 3 2 1 2 1 1 1 1 1 -0 -2 -5 -7 -8 -9 -9
9 7 5 5 6 4 -3 -3 -3 -3 -2 -2 -1 -5 -8 -6 -8 -8 -9 -9 -9 -8 -6 0 2 2 1 0 1 1 1 1 -0 -1 -1 0 0 -0 -2 -7 -12 -14 -13
8 7 7 6 4 -3 -3 -3 -3 -3 -4 -5 -12 -8 -6 -6 -6 -5 -5 -6 -7 -7 -2 0 0 -0 -2 -5 -5 -3 -2 -2 -2 -2 -1 -1 -1 -2 -2 -2 -3 -3 -7
8 7 5 -0 -3 -3 -3 -3 -6 -11 -15 -14 -11 -9 -7 -5 -4 -4 -4 -6 -8 -8 -8 -8 -8 -9 -10 -11 -10 -5 -4 -4 -4 -3 -2 -3 -4 -3 -3 -4 -4 -3 -2
7 3 -3 -3 -3 -3 -5 -8 -12 -15 -16 -13 -13 -11 -6 -3 -4 -4 -5 -6 -6 -8 -9 -9 -9 -10 -11 -12 -12 -12 -6 -5 -5 -4 -4 -4 -4 -4 -5 -5 -5 -5 -4
3 -3 -2 -2 -3 -5 -8 -13 -18 -22 -23 -21 -15 -8 -6 -5 -4 -5 -5 -6 -7 -6 -9 -10 -10 -11 -16 -15 -13 -12 -7 -7 -6 -6 -6 -5 -6 -6 -5 -5 -5 -5 -4
-2 -2 -1 -2 -5 -7 -10 -16 -22 -25 -25 -21 -14 -8 -4 -6 -5 -4 -5 -4 -5 -7 -9 -8 -11 -16 -16 -13 -12 -13 -12 -9 -8 -8 -8 -7 -7 -7 -6 -5 -5 -5 -5
-1 -1 -1 -3 -5 -9 -13 -19 -22 -20 -23 -17 -12 -8 -4 -4 -4 -4 -4 -5 -6 -7 -7 -12 -15 -16 -15 -17 -17 -17 -17 -17 -13 -8 -8 -8 -8 -7 -6 -6 -6 -6 -5
-0 -0 -0 -3 -6 -8 -16 -21 -14 -7 -19 -14 -7 -6 -5 -2 -3 -4 -6 -8 -7 -8 -8 -10 -13 -13 -14 -14 -15 -14 -14 -17 -16 -11 -7 -7 -7 -7 -6 -6 -6 -5 -5
0 0 -0 -5 -6 -11 -20 -4 2 -2 -15 -12 -8 -9 -10 -9 -8 -7 -7 -7 -7 -7 -7 -8 -10 -10 -9 -12 -11 -11 -12 -13 -15 -14 -11 -8 -7 -7 -6 -6 -6 -6 -6
0 0 -1 -5 -7 -16 -11 1 0 -20 -18 -11 -10 -9 -9 -9 -8 -6 -6 -6 -6 -6 -7 -8 -8 -8 -8 -9 -10 -10 -11 -11 -11 -11 -11 -10 -8 -7 -7 -7 -8 -8 -7
1 0 -3 -8 -17 -6 -1 -3 -13 -15 -14 -16 -9 -7 -7 -7 -7 -6 -6 -5 -5 -6 -7 -7 -7 -8 -9 -10 -11 -12 -14 -14 -13 -13 -13 -13 -11 -10 -10 -9 -8 -7 -7
2 -0 -3 1 -5 -1 0 -4 -11 -22 -11 -7 -6 -6 -6 -7 -7 -6 -6 -5 -6 -6 -6 -6 -8 -9 -10 -12 -14 -17 -20 -21 -21 -21 -20 -19 -18 -12 -9 -8 -8 -7 -7
1 -1 -3 -4 -4 -2 1 -17 -11 -10 -8 -7 -8 -8 -6 -7 -7 -7 -6 -6 -5 -5 -6 -7 -8 -11 -12 -15 -17 -20 -21 -20 -19 -19 -18 -18 -16 -10 -9 -8 -8 -8 -7
0 -5 -5 -6 -5 -6 -15 -9 -11 -12 -8 -8 -6 -9 -9 -8 -7 -7 -7 -8 -8 -7 -7 -10 -12 -12 -14 -16 -18 -21 -22 -18 -17 -16 -16 -16 -13 -10 -10 -10 -10 -9 -9
1 -3 -7 -6 -7 -11 -10 -15 -5 -9 -8 -7 -9 -12 -11 -9 -8 -8 -8 -8 -9 -9 -11 -12 -13 -14 -15 -16 -20 -23 -21 -18 -16 -15 -16 -15 -16 -13 -17 -16 -15 -9 -9
-3 -7 -6 -7 -8 -11 -9 -3 -11 -10 -9 -9 -8 -8 -10 -9 -8 -7 -8 -12 -13 -12 -11 -12 -14 -14 -15 -18 -21 -21 -19 -18 -17 -17 -19 -20 -20 -17 -16 -17 -19 -13 -13
-5 -7 -6 -7 -8 -5 -1 -10 -10 -9 -9 -8 -7 -6 -7 -7 -7 -8 -10 -12 -12 -10 -12 -13 -13 -14 -16 -19 -20 -19 -19 -18 -19 -17 -16 -15 -14 -14 -15 -16 -16 -17 -17
-6 -5 -6 -6 -6 -2 -3 -7 -8 -8 -8 -7 -7 -6 -6 -6 -6 -6 -11 -10 -10 -11 -12 -12 -13 -15 -17 -19 -18 -17 -18 -18 -20 -16 -15 -14 -14 -15 -15 -14 -15 -16 -17
-6 -4 -5 -5 -1 -1 -4 -7 -7 -6 -7 -7 -7 -6 -6 -6 -5 -6 -9 -9 -10 -11 -12 -13 -13 -15 -17 -18 -16 -16 -17 -19 -17 -15 -14 -17 -16 -15 -13 -14 -14 -14 -16
-5 -5 -5 -2 -2 -0 -4 -7 -7 -7 -7 -7 -7 -6 -6 -6 -5 -7 -8 -9 -10 -11 -13 -12 -14 -14 -18 -16 -15 -16 -17 -16 -12 -14 -14 -17 -16 -14 -13 -12 -13 -14 -15
-5 -4 -2 -2 -0 -2 -4 -7 -9 -8 -9 -9 -7 -6 -6 -5 -5 -8 -8 -11 -13 -13 -13 -13 -14 -16 -16 -15 -14 -15 -14 -15 -14 -16 -13 -15 -16 -15 -14 -13 -13 -10 -9
-4 -2 -2 -1 -1 -3 -7 -10 -10 -10 -10 -9 -7 -6 -6 -6 -6 -8 -10 -12 -15 -14 -13 -13 -15 -17 -15 -14 -13 -13 -13 -15 -16 -16 -14 -13 -15 -16 -16 -14 -14 -11 -9
-2 -2 -1 -1 -2 -6 -11 -14 -15 -14 -13 -10 -7 -6 -6 -6 -8 -9 -13 -13 -15 -15 -14 -15 -17 -15 -14 -13 -13 -13 -14 -15 -16 -18 -15 -12 -13 -14 -15 -14 -13 -10 -12
-1 -1 -1 -2 -5 -12 -16 -16 -15 -13 -11 -7 -7 -6 -6 -6 -8 -11 -14 -14 -14 -16 -15 -17 -16 -14 -14 -14 -14 -13 -13 -14 -15 -16 -15 -13 -13 -12 -11 -13 -12 -12 -12

GFSMA_850_dewp_030.txt.gz
Dewpoint
-2 3 6 7 6 6 5 5 2 -2 -2 -3 -4 -7 -10 -15 -8 -3 0 -11 -13 -6 0 3 3 3 3 3 1 2 1 1 1 1 1 1 1 0 0 -0 -1 -7 -16
4 6 7 7 6 6 5 3 1 2 -2 -5 -12 -16 -19 -18 -16 -13 -2 -1 -13 -11 -6 0 3 2 3 3 1 2 1 0 -0 -0 -0 0 1 1 0 -0 -1 -1 -2
7 8 7 7 6 5 4 -2 -3 -4 -4 -9 -15 -17 -16 -18 -12 -14 -4 -2 -1 -9 -12 -9 -4 -3 -0 1 1 -1 -2 -1 -1 -1 -1 -1 0 -1 -2 -1 -2 -2 -3
9 8 8 6 5 5 2 -2 -1 -0 -1 -3 -8 -5 -8 -10 -12 -10 -4 -3 -3 -4 -2 -7 -4 -3 -1 -1 -2 -5 -7 -3 -2 -2 -2 -2 -1 -2 -1 -2 -2 -3 -3
9 9 7 6 6 5 -2 -2 -4 -4 -3 -4 -4 -7 -7 -4 -4 -6 -5 -4 -6 -6 -7 -6 -9 -10 -9 -9 -10 -11 -10 -4 -3 -2 -2 -1 -1 -1 -1 -2 -3 -4 -3
9 9 7 7 6 2 -2 -2 -5 -9 -5 -4 -6 -4 -3 -4 -4 -4 -4 -5 -5 -5 -5 -6 -7 -7 -9 -10 -13 -15 -12 -5 -4 -4 -4 -4 -4 -4 -3 -4 -4 -4 -4
9 8 7 7 5 1 1 -4 -6 -10 -11 -9 -2 -1 -1 -2 -3 -4 -5 -5 -5 -5 -5 -7 -7 -8 -9 -9 -10 -13 -18 -14 -7 -6 -6 -5 -5 -5 -4 -4 -4 -4 -4
7 7 7 7 2 1 -2 -4 -7 -10 -4 -3 -0 -0 0 -1 -2 -3 -5 -5 -4 -5 -6 -6 -6 -8 -8 -9 -9 -12 -13 -15 -15 -10 -6 -5 -5 -5 -5 -5 -4 -4 -4
7 7 7 6 -0 -1 -2 -4 -6 -12 -1 -0 -1 1 -1 -3 -4 -4 -3 -4 -4 -5 -6 -6 -6 -7 -7 -7 -8 -7 -7 -10 -11 -11 -11 -6 -5 -6 -6 -6 -5 -5 -5
6 7 7 5 -1 -1 -2 -4 -9 -7 -2 2 1 -1 -2 -5 -8 -7 -4 -4 -4 -5 -6 -6 -7 -7 -7 -7 -7 -6 -6 -9 -10 -12 -16 -8 -7 -6 -6 -6 -6 -6 -5
5 6 5 2 -1 -1 -2 -6 -11 -5 2 -0 -0 -1 -3 -5 -5 -6 -6 -9 -8 -7 -7 -6 -6 -7 -7 -7 -6 -7 -8 -11 -16 -20 -23 -23 -12 -8 -7 -7 -7 -7 -6
5 4 2 0 -0 -1 -3 -9 -9 1 0 0 -1 -5 -6 -5 -5 -6 -7 -8 -8 -7 -7 -7 -7 -7 -7 -7 -7 -9 -15 -19 -21 -25 -24 -23 -24 -16 -8 -8 -7 -7 -7
5 3 1 1 -0 0 -1 -9 -2 3 1 -1 -7 -4 -3 -4 -6 -7 -7 -8 -7 -8 -8 -7 -7 -7 -8 -8 -8 -9 -14 -19 -23 -24 -24 -25 -24 -22 -17 -9 -8 -8 -7
6 5 2 5 1 -0 -4 -8 3 2 -1 -4 -5 -2 -4 -4 -5 -6 -6 -7 -7 -9 -9 -9 -8 -8 -8 -8 -9 -10 -11 -12 -13 -23 -24 -24 -23 -22 -21 -12 -8 -8 -8
6 5 4 6 -0 -2 -10 0 2 -2 -9 -6 -1 -1 -3 -5 -4 -4 -5 -6 -7 -8 -9 -10 -10 -10 -9 -9 -10 -11 -11 -11 -17 -23 -24 -23 -22 -22 -20 -13 -9 -8 -8
8 5 4 3 -0 1 -4 3 -3 -6 -2 -0 -1 -2 -3 -5 -6 -5 -7 -7 -7 -7 -8 -9 -10 -10 -9 -9 -10 -11 -11 -13 -15 -15 -18 -23 -22 -20 -20 -17 -11 -10 -9
9 7 5 5 5 -3 1 -6 -9 -3 -3 -2 -1 -4 -4 -6 -7 -6 -6 -7 -7 -7 -8 -9 -10 -11 -9 -9 -10 -11 -12 -14 -15 -15 -14 -20 -21 -21 -21 -18 -18 -14 -11
8 8 6 6 2 -3 -3 -9 -6 -3 -1 0 -2 -4 -5 -6 -5 -5 -6 -6 -6 -7 -8 -9 -9 -10 -10 -10 -11 -11 -13 -15 -14 -14 -14 -19 -18 -19 -17 -16 -16 -17 -17
8 7 6 4 -2 -3 -9 -5 -6 -2 -0 -0 -3 -4 -5 -5 -5 -5 -5 -6 -7 -7 -8 -8 -9 -10 -10 -12 -12 -13 -14 -14 -14 -15 -15 -14 -12 -13 -15 -17 -17 -16 -14
8 7 5 1 -2 -8 -7 -6 -3 -0 -0 -2 -3 -4 -4 -4 -5 -4 -5 -5 -6 -7 -7 -8 -9 -10 -12 -13 -13 -14 -16 -15 -15 -14 -14 -13 -12 -12 -12 -12 -13 -13 -13
6 5 3 -3 -6 -8 -7 -2 -1 -1 -1 -2 -3 -3 -3 -4 -4 -5 -5 -6 -5 -6 -7 -9 -10 -11 -13 -14 -14 -14 -15 -14 -13 -13 -14 -13 -13 -13 -12 -12 -11 -9 -11
2 -1 -4 -4 -7 -4 -2 -0 -1 -1 -2 -2 -2 -3 -4 -4 -4 -7 -7 -6 -6 -5 -6 -8 -9 -11 -13 -13 -13 -14 -14 -13 -13 -14 -14 -13 -13 -13 -13 -12 -11 -12 -13
-2 -3 -5 -4 -3 -5 -2 -1 -1 -2 -1 -3 -2 -4 -4 -6 -5 -4 -7 -6 -6 -5 -6 -8 -9 -11 -12 -12 -12 -14 -13 -13 -13 -13 -13 -14 -14 -14 -13 -13 -11 -12 -12
-1 -2 -3 -5 -6 -1 -1 -1 -1 -2 -2 -3 -4 -6 -6 -6 -6 -5 -5 -5 -5 -5 -6 -9 -11 -12 -12 -11 -12 -13 -12 -11 -12 -13 -14 -14 -14 -13 -12 -12 -11 -10 -10
-2 -3 -5 -4 -1 -1 -2 -1 -2 -5 -6 -7 -6 -7 -7 -7 -7 -6 -5 -5 -5 -5 -6 -9 -13 -14 -16 -16 -17 -15 -11 -11 -11 -12 -14 -13 -13 -13 -12 -11 -9 -9 -10
-1 -2 -1 -1 -1 -2 -4 -7 -9 -10 -8 -6 -6 -6 -7 -9 -12 -8 -6 -5 -5 -5 -7 -9 -13 -15 -17 -17 -19 -18 -11 -11 -11 -12 -14 -13 -13 -13 -12 -11 -10 -10 -9

GFSMA_850_dewp_033.txt.gz
Dewpoint
8 8 8 7 7 7 6 6 2 3 1 0 -0 -0 -2 -2 -3 -3 0 -5 -15 -7 1 4 4 3 3 3 2 1 1 2 1 1 0 1 1 1 1 0 0 -1 -3
8 8 7 7 7 6 6 5 4 3 2 1 -1 -5 -8 -4 -7 -8 -1 -0 -8 -11 -5 4 3 2 3 2 1 1 0 0 0 0 0 -0 0 -0 -0 -1 -1 -1 -1
7 8 8 7 7 6 6 4 -0 2 1 -1 -2 -3 -2 -4 -3 -2 -3 -1 -1 -4 -11 -8 -3 -1 0 1 1 0 -1 -1 -1 -1 -1 -1 -1 -0 -0 -1 -1 -1 -2
7 8 8 8 7 6 6 4 3 3 1 -1 -2 -3 -2 -3 -2 -3 -2 -3 -2 -2 -2 -5 -10 -7 -4 -3 -1 -2 -4 -7 -5 -2 -1 -0 0 0 1 0 -0 -1 -2
9 9 8 8 7 6 5 4 3 2 1 -1 -1 -2 -1 -2 -1 -4 -3 -3 -4 -6 -5 -5 -6 -9 -10 -11 -11 -11 -12 -11 -8 -3 -2 -2 -3 -2 -2 -2 -1 -2 -3
9 9 8 8 6 6 5 4 3 -0 -1 -1 -4 -3 -0 -1 -1 -2 -2 -3 -4 -3 -4 -4 -5 -5 -7 -8 -10 -12 -14 -13 -7 -5 -4 -4 -4 -3 -3 -3 -3 -3 -4
9 8 8 7 7 6 4 4 2 -1 -1 -3 0 1 1 1 0 -1 -2 -3 -4 -4 -4 -4 -5 -6 -8 -8 -8 -7 -9 -12 -13 -8 -4 -4 -4 -4 -4 -4 -4 -4 -3
8 7 8 7 7 5 4 3 -0 -0 -1 -0 1 2 2 1 0 -1 -2 -3 -3 -3 -4 -5 -5 -5 -6 -7 -8 -8 -8 -8 -9 -11 -10 -8 -5 -4 -4 -5 -5 -5 -5
9 9 8 7 7 5 5 0 -2 -2 -1 1 1 2 1 0 -2 -1 -1 -2 -3 -2 -3 -5 -5 -5 -5 -6 -6 -6 -6 -6 -7 -10 -11 -13 -7 -6 -6 -5 -6 -5 -5
8 9 8 8 7 5 4 2 -0 -1 -3 1 3 2 2 1 -2 -4 -2 -2 -2 -2 -3 -4 -5 -5 -5 -5 -6 -6 -6 -6 -7 -10 -18 -20 -19 -11 -8 -6 -6 -6 -6
9 9 8 7 6 5 2 0 -1 -3 -6 2 1 2 1 -1 -2 -3 -4 -4 -3 -5 -6 -5 -5 -5 -5 -6 -6 -6 -6 -7 -10 -15 -21 -25 -26 -20 -9 -8 -7 -7 -7
8 8 7 6 6 4 1 0 -1 -7 -4 2 3 2 -1 -3 -3 -3 -3 -4 -6 -7 -7 -6 -5 -6 -6 -6 -6 -7 -7 -9 -11 -17 -23 -26 -25 -26 -22 -9 -8 -7 -7
7 7 8 7 5 4 1 3 1 1 1 3 4 1 -3 -2 -2 -4 -6 -6 -6 -6 -7 -7 -6 -6 -7 -7 -7 -8 -8 -9 -11 -14 -21 -24 -27 -27 -25 -17 -9 -8 -8
8 8 5 8 7 4 3 4 0 2 0 4 1 -1 -1 -1 -3 -4 -4 -5 -5 -6 -8 -8 -8 -8 -7 -7 -8 -8 -9 -9 -10 -12 -17 -20 -24 -26 -25 -23 -16 -9 -8
6 7 9 7 5 3 4 3 2 -3 3 2 0 0 0 -1 -3 -3 -3 -4 -6 -6 -7 -9 -9 -9 -9 -8 -8 -9 -8 -9 -10 -12 -15 -17 -19 -21 -23 -24 -22 -12 -9
8 8 8 6 3 3 4 4 3 -1 1 0 -0 -2 -0 -1 -2 -4 -4 -6 -6 -6 -7 -8 -9 -9 -9 -9 -9 -9 -9 -10 -10 -12 -14 -15 -15 -15 -20 -23 -21 -14 -9
9 8 8 6 4 3 4 4 0 0 -1 -1 -1 0 0 -1 -3 -5 -6 -6 -6 -7 -7 -8 -8 -9 -9 -9 -9 -8 -9 -10 -11 -14 -15 -14 -14 -16 -19 -19 -19 -18 -15
8 8 7 7 6 3 4 2 -1 -0 -2 -1 -3 1 0 -2 -4 -5 -5 -6 -5 -5 -6 -7 -8 -8 -9 -9 -9 -9 -10 -11 -12 -14 -13 -15 -15 -15 -14 -14 -14 -16 -18
8 7 7 6 5 3 2 -1 -0 -3 -2 -2 0 -0 -1 -3 -3 -5 -5 -4 -4 -5 -6 -6 -6 -8 -9 -10 -10 -11 -11 -12 -13 -15 -16 -15 -14 -13 -13 -13 -12 -12 -15
8 7 6 5 3 3 -1 -2 -4 -2 -2 -0 -0 -0 -1 -2 -3 -3 -4 -3 -4 -4 -4 -5 -6 -8 -9 -10 -10 -12 -12 -14 -14 -15 -14 -13 -14 -13 -13 -13 -12 -11 -11
6 6 6 4 3 -1 -2 -3 -2 -1 -2 -1 -1 -1 -1 -2 -2 -3 -3 -4 -4 -4 -4 -5 -6 -7 -10 -10 -11 -13 -13 -13 -14 -13 -13 -13 -13 -13 -13 -13 -13 -11 -9
5 4 3 2 0 -3 -4 -2 -3 -2 -1 -1 -1 -1 -1 -1 -2 -3 -4 -4 -4 -4 -5 -5 -5 -6 -9 -10 -11 -12 -12 -13 -14 -13 -13 -12 -13 -13 -13 -14 -13 -11 -11
0 -1 -1 -2 -4 -4 -3 -4 -2 -2 -1 -1 -1 -2 -2 -3 -4 -5 -6 -6 -6 -6 -6 -5 -4 -5 -6 -9 -10 -11 -11 -12 -14 -13 -11 -12 -13 -13 -13 -14 -12 -11 -11
-1 -2 -3 -4 -2 -1 -1 -2 -2 -1 -2 -2 -2 -2 -4 -5 -6 -6 -7 -6 -6 -5 -5 -6 -5 -6 -5 -8 -11 -11 -11 -12 -12 -11 -12 -12 -13 -13 -12 -13 -12 -11 -11
0 0 -0 -1 -2 -4 -3 -1 -1 -2 -3 -3 -4 -5 -5 -5 -6 -6 -6 -6 -6 -6 -5 -5 -6 -5 -5 -9 -15 -12 -12 -12 -12 -12 -12 -12 -13 -13 -13 -13 -12 -10 -9
-0 -1 -2 -2 -2 -2 -3 -3 -5 -7 -8 -5 -5 -5 -5 -5 -5 -5 -5 -6 -7 -6 -5 -4 -5 -5 -7 -8 -13 -15 -14 -12 -11 -11 -11 -11 -12 -13 -13 -13 -11 -12 -12